GW0200 Weather Reports


time (UTC)temp
C
wind
direction
speed
KPH
gust
KPH
rain 1hr
cm
rain 24hr
cm
rain mn
cm
humidity
%
barometer
mb
20260510104428 6 304 0.0 4.8 0.00 1.02 0.05 91 1008.1
20260510103931 6 12 0.0 4.8 0.00 1.02 0.05 91 1008.0
20260510103427 6 12 0.0 4.8 0.00 1.02 0.05 91 1007.7
20260510102929 7 338 0.0 4.8 0.00 1.02 0.05 91 1007.7
20260510102657 7 327 0.0 4.8 0.00 1.02 0.05 92 1007.7
20260510101926 7 355 0.0 1.6 0.00 1.02 0.05 91 1007.7
20260510101427 7 355 0.0 4.8 0.00 1.02 0.05 92 1007.6
20260510100926 7 355 0.0 4.8 0.00 1.02 0.05 92 1007.6
20260510100427 7 355 0.0 3.2 0.00 1.02 0.05 92 1007.5
20260510095925 7 339 0.0 4.8 0.00 1.02 0.05 92 1007.5
20260510095426 7 355 0.0 4.8 0.00 1.02 0.05 92 1007.4
20260510094925 7 33 0.0 3.2 0.00 1.02 0.05 92 1007.4
20260510094425 7 33 1.6 3.2 0.00 1.02 0.05 92 1007.3
20260510093926 7 330 0.0 3.2 0.00 1.02 0.05 92 1007.2
20260510093425 7 339 0.0 1.6 0.00 1.02 0.05 92 1007.1
20260510093157 7 302 0.0 1.6 0.00 1.02 0.05 92 1007.0
20260510092655 7 302 0.0 1.6 0.00 1.02 0.05 92 1007.0
20260510091921 7 302 0.0 1.6 0.00 1.02 0.05 92 1006.9
20260510091422 7 302 0.0 1.6 0.00 1.02 0.05 92 1006.8
20260510090921 7 302 0.0 1.6 0.00 1.02 0.05 92 1006.8
20260510090422 7 302 0.0 1.6 0.00 1.02 0.05 92 1006.7
20260510085922 7 323 0.0 0.0 0.00 1.02 0.05 92 1006.6
20260510085422 7 323 0.0 0.0 0.00 1.02 0.05 92 1006.3
20260510084922 7 323 0.0 3.2 0.00 1.02 0.05 92 1006.3
20260510084422 7 323 0.0 3.2 0.00 1.02 0.05 92 1006.2
20260510083918 7 72 0.0 1.6 0.00 1.02 0.05 92 1006.1
20260510083418 7 72 0.0 1.6 0.00 1.02 0.05 92 1006.1
20260510082917 7 72 0.0 3.2 0.00 1.02 0.05 92 1006.1
20260510082417 7 72 0.0 3.2 0.00 1.02 0.05 92 1006.1
20260510081920 7 72 0.0 0.0 0.00 1.02 0.05 92 1005.8
20260510081420 7 72 0.0 0.0 0.00 1.02 0.05 92 1005.7
20260510080917 7 72 0.0 0.0 0.00 1.02 0.05 92 1005.5
20260510080648 7 72 0.0 0.0 0.00 1.02 0.05 92 1005.5
20260510075918 7 72 0.0 0.0 0.00 1.02 0.05 92 1005.4
20260510075643 8 72 0.0 0.0 0.00 1.02 0.05 92 1005.4
20260510074906 8 72 0.0 0.0 0.00 1.02 0.05 91 1005.3
20260510074401 8 72 0.0 0.0 0.00 1.02 0.05 91 1005.3
20260510074127 8 72 0.0 0.0 0.00 1.02 0.05 91 1005.2
20260510073348 8 72 0.0 0.0 0.00 1.02 0.05 91 1005.2
20260510072843 8 72 0.0 0.0 0.00 1.02 0.05 92 1005.0
20260510072337 8 72 0.0 1.6 0.00 1.02 0.05 92 1005.0
20260510071832 8 72 0.0 1.6 0.00 1.02 0.05 92 1005.0
20260510071556 8 72 0.0 0.0 0.00 1.02 0.05 92 1004.9
20260510071055 8 72 0.0 0.0 0.00 1.02 0.05 92 1004.8
20260510070322 8 72 0.0 0.0 0.00 1.02 0.05 92 1005.0
20260510065817 8 72 0.0 0.0 0.00 1.02 0.05 91 1004.9
20260510065547 8 72 0.0 0.0 0.00 1.02 0.05 91 1004.8
20260510065046 8 72 0.0 1.6 0.00 1.02 0.05 91 1004.8
20260510064545 8 72 0.0 1.6 0.00 1.02 0.05 91 1004.7
20260510063813 9 72 0.0 1.6 0.00 1.02 0.05 91 1004.7
20260510063546 9 72 0.0 1.6 0.00 1.02 0.05 91 1004.7
20260510063317 9 72 0.0 1.6 0.00 1.02 0.05 91 1004.6
20260510062541 9 72 0.0 1.6 0.03 1.02 0.05 90 1004.7
20260510061807 9 72 0.0 1.6 0.05 1.02 0.05 90 1004.7
20260510061536 9 72 0.0 1.6 0.05 1.02 0.05 90 1004.7
20260510061036 9 72 0.0 1.6 0.05 1.02 0.05 90 1004.6
20260510060532 9 72 0.0 3.2 0.05 1.02 0.05 89 1004.6
20260510060306 10 15 0.0 4.8 0.05 1.02 0.05 89 1004.6
20260510055306 10 325 0.0 6.4 0.05 1.02 0.05 88 1004.5
20260510055259 10 0 0.0 6.4 0.05 1.02 0.05 88 1004.6
20260510054254 10 40 1.6 8.0 0.05 1.04 0.05 87 1004.4
20260510054024 11 70 3.2 9.7 0.05 1.04 0.05 87 1004.0
20260510053251 11 324 3.2 16.1 0.05 1.04 0.05 87 1003.7
20260510052752 11 333 4.8 17.7 0.05 1.04 0.05 87 1003.7
20260510052246 12 355 4.8 17.7 0.03 1.02 0.03 86 1003.7
20260510051740 12 46 3.2 12.9 0.00 0.99 0.00 86 1004.1
20260510051234 12 321 4.8 17.7 0.00 0.99 0.00 86 1004.5
20260510050728 12 325 6.4 19.3 0.00 0.99 0.00 87 1004.1
20260510050222 13 346 4.8 19.3 0.00 0.99 0.00 90 1003.8
20260510045715 12 341 3.2 9.7 0.00 0.99 0.00 90 1003.5
20260510045442 12 355 3.2 9.7 0.00 0.99 0.00 91 1003.2
20260510044704 12 327 1.6 9.7 0.00 0.99 0.00 92 1003.0
20260510044659 12 331 1.6 3.2 0.00 0.99 0.00 91 1003.0
20260510043651 12 331 1.6 3.2 0.00 0.99 0.00 91 1002.8
20260510043145 12 182 0.0 0.0 0.00 0.99 0.00 90 1002.2
20260510042640 12 182 0.0 0.0 0.00 1.02 0.00 90 1002.1
20260510042134 12 182 0.0 0.0 0.00 1.02 0.00 89 1002.0
20260510041628 12 182 0.0 3.2 0.00 1.02 0.00 89 1001.9
20260510041122 12 211 0.0 4.8 0.00 1.07 0.00 89 1001.9
20260510040615 12 197 0.0 4.8 0.00 1.07 0.00 89 1001.9
20260510040116 12 163 1.6 8.0 0.00 1.09 1.07 90 1001.9
20260510040109 12 190 0.0 8.0 0.00 1.07 0.00 90 1001.9
20260510035058 12 142 1.6 8.0 0.00 1.09 1.07 91 1002.0
20260510034822 12 155 1.6 6.4 0.00 1.09 1.07 92 1001.9
20260510034317 12 248 1.6 9.7 0.00 1.09 1.07 93 1002.0
20260510033539 12 142 1.6 9.7 0.00 1.09 1.07 93 1002.1
20260510033305 12 165 0.0 8.0 0.00 1.09 1.07 93 1002.1
20260510032527 12 160 0.0 1.6 0.00 1.09 1.07 93 1002.0
20260510032022 12 160 0.0 1.6 0.00 1.09 1.07 93 1001.9
20260510031516 12 160 0.0 0.0 0.00 1.09 1.07 92 1001.9
20260510031242 12 160 0.0 1.6 0.00 1.09 1.07 92 1001.8
20260510030737 12 160 0.0 4.8 0.00 1.09 1.07 92 1001.8
20260510025958 12 160 0.0 4.8 0.00 1.09 1.07 93 1001.8
20260510025451 12 176 0.0 4.8 0.00 1.09 1.07 93 1001.9
20260510024946 12 146 1.6 11.3 0.00 1.09 1.07 93 1002.1
20260510024710 12 153 1.6 11.3 0.00 1.09 1.07 94 1002.2
20260510023933 12 126 0.0 3.2 0.00 1.09 1.07 94 1002.4
20260510023428 12 155 0.0 3.2 0.00 1.09 1.07 94 1002.1
20260510023423 12 155 0.0 4.8 0.00 1.09 1.07 93 1001.7
20260510022416 12 200 0.0 4.8 0.00 1.09 1.07 93 1001.6
20260510022142 12 167 0.0 1.6 0.00 1.09 1.07 93 1001.6
20260510021403 12 167 0.0 1.6 0.00 1.09 1.07 93 1001.6
20260510020858 11 153 0.0 1.6 0.00 1.09 1.07 93 1001.8
20260510020623 11 153 0.0 3.2 0.00 1.09 1.07 93 1001.6
20260510015845 11 147 0.0 3.2 0.00 1.09 1.07 92 1001.7
20260510015339 12 115 0.0 1.6 0.00 1.09 1.07 92 1001.7
20260510015106 12 115 0.0 1.6 0.00 1.09 1.07 92 1001.6
20260510014328 12 115 0.0 3.2 0.00 1.09 1.07 92 1001.7
20260510013821 12 115 0.0 3.2 0.00 1.09 1.07 92 1001.7
20260510013317 12 180 0.0 4.8 0.00 1.09 1.07 92 1001.6
20260510012809 12 180 0.0 4.8 0.00 1.09 1.07 92 1001.5
20260510012306 12 153 0.0 4.8 0.00 1.09 1.07 92 1001.4
20260510011757 12 215 0.0 4.8 0.00 1.09 1.07 92 1001.3
20260510011252 12 142 1.6 6.4 0.00 1.09 1.07 92 1001.2
20260510010746 12 265 1.6 8.0 0.00 1.09 1.07 92 1001.2
20260510010239 12 226 1.6 8.0 0.00 1.09 1.07 92 1001.1
20260510005734 12 154 0.0 4.8 0.00 1.12 1.07 92 1001.1
20260510005228 12 159 1.6 4.8 0.00 1.12 1.07 92 1001.2
20260510004722 12 165 1.6 6.4 0.00 1.12 1.07 92 1001.2
20260510004450 12 168 1.6 6.4 0.00 1.12 1.07 92 1001.2
20260510003717 12 305 1.6 8.0 0.00 1.12 1.07 92 1001.2
20260510003218 12 285 1.6 8.0 0.00 1.12 1.07 92 1001.2
20260510002948 12 198 3.2 8.0 0.00 1.14 1.07 92 1001.2
20260510002217 12 157 3.2 17.7 0.00 1.14 1.07 92 1001.1
20260510001717 13 175 3.2 17.7 0.00 1.17 1.07 92 1001.1
20260510001218 13 159 1.6 4.8 0.00 1.19 1.07 93 1001.1
20260510000948 13 158 1.6 8.0 0.03 1.19 1.07 93 1001.1
20260510000214 13 184 1.6 8.0 0.08 1.22 1.07 93 1001.0
20260509235716 13 142 3.2 9.7 0.10 1.22 1.07 93 1001.1
20260509235214 12 255 3.2 11.3 0.33 1.22 1.07 92 1001.1
20260509234716 12 225 3.2 11.3 0.51 1.24 1.07 93 1001.0
20260509234215 12 211 4.8 14.5 0.91 1.24 1.07 93 1001.0
20260509233714 12 163 3.2 14.5 0.97 1.27 1.07 93 1000.9
20260509233215 12 315 3.2 12.9 0.97 1.30 1.07 92 1000.9
20260509232713 12 190 3.2 11.3 0.97 1.32 1.07 92 1001.0
20260509232444 12 239 3.2 11.3 0.97 1.32 1.07 92 1001.0
20260509231708 12 252 3.2 11.3 0.97 1.35 1.07 92 1000.8
20260509231206 12 164 3.2 11.3 0.97 1.37 1.07 91 1000.8
20260509230938 12 315 6.4 29.0 0.94 1.35 1.04 90 1000.9
20260509230208 12 27 8.0 29.0 0.89 1.32 0.99 89 1001.3
20260509225708 12 333 8.0 20.9 0.86 1.32 0.97 86 1001.4
20260509225209 13 323 8.0 17.7 0.64 1.09 0.79 82 1001.6
20260509224940 15 334 9.7 24.1 0.46 0.91 0.56 75 1001.5
20260509224207 16 5 11.3 35.4 0.05 0.51 0.15 67 1001.3
20260509223706 18 311 6.4 35.4 0.00 0.46 0.10 59 1001.0
20260509223206 19 296 4.8 14.5 0.00 0.46 0.10 55 999.2
20260509222936 19 192 4.8 12.9 0.00 0.48 0.10 54 998.7
20260509222205 19 151 4.8 14.5 0.00 0.48 0.10 54 998.8
20260509221705 20 188 6.4 17.7 0.00 0.48 0.10 53 998.7
20260509221206 20 160 4.8 17.7 0.00 0.48 0.10 54 998.6
20260509220701 20 198 4.8 16.1 0.00 0.48 0.10 53 998.4
20260509220202 20 182 6.4 17.7 0.00 0.48 0.10 54 998.5
20260509215704 20 262 6.4 17.7 0.00 0.48 0.10 54 998.5
20260509215201 20 215 6.4 19.3 0.00 0.48 0.10 56 998.5
20260509214700 20 167 6.4 22.5 0.00 0.48 0.10 56 998.4
20260509214200 20 24 6.4 22.5 0.00 0.48 0.10 55 998.2
20260509213701 20 151 8.0 22.5 0.00 0.48 0.10 54 998.2
20260509213200 21 202 6.4 22.5 0.00 0.48 0.10 52 998.1
20260509212701 21 99 6.4 22.5 0.00 0.48 0.10 52 998.1
20260509212157 21 168 6.4 19.3 0.00 0.48 0.10 52 998.0
20260509211656 21 163 8.0 19.3 0.00 0.48 0.10 52 998.2
20260509211427 21 182 8.0 20.9 0.00 0.48 0.10 54 998.2
20260509210929 21 147 8.0 27.4 0.00 0.48 0.10 54 998.4
20260509210157 21 211 8.0 27.4 0.00 0.48 0.10 52 998.6
20260509205927 21 173 8.0 19.3 0.00 0.48 0.10 54 998.5
20260509205428 21 329 8.0 19.3 0.00 0.48 0.10 55 998.6
20260509204658 21 169 6.4 17.7 0.00 0.48 0.10 56 998.6
20260509204158 21 188 8.0 19.3 0.00 0.48 0.10 55 998.7
20260509203653 20 240 8.0 20.9 0.00 0.48 0.10 54 998.7
20260509203152 21 173 8.0 25.7 0.00 0.48 0.10 53 999.0
20260509202652 21 215 6.4 25.7 0.00 0.48 0.10 52 999.0
20260509202154 21 153 4.8 16.1 0.00 0.48 0.10 53 999.1
20260509201652 21 226 6.4 17.7 0.00 0.48 0.10 53 999.1
20260509201154 21 78 6.4 17.7 0.00 0.48 0.10 54 999.3
20260509200923 21 213 4.8 14.5 0.00 0.48 0.10 54 999.3
20260509200153 21 176 6.4 19.3 0.00 0.48 0.10 56 999.3
20260509195926 20 269 6.4 19.3 0.00 0.48 0.10 56 999.3
20260509195150 20 180 6.4 24.1 0.00 0.48 0.10 56 999.5
20260509194650 20 178 4.8 24.1 0.00 0.48 0.10 57 999.5
20260509194147 20 194 6.4 16.1 0.00 0.48 0.10 59 999.6
20260509193648 20 44 6.4 22.5 0.00 0.48 0.10 57 999.7
20260509193145 20 182 6.4 22.5 0.00 0.48 0.10 57 999.8
20260509192646 20 107 6.4 14.5 0.00 0.48 0.10 58 999.9
20260509192146 20 57 6.4 17.7 0.00 0.48 0.10 57 1000.0
20260509191642 20 173 6.4 17.7 0.00 0.48 0.10 57 1000.1
20260509191413 20 59 6.4 14.5 0.00 0.48 0.10 59 1000.2
20260509190643 20 53 6.4 14.5 0.00 0.48 0.10 58 1000.2
20260509190142 20 114 4.8 27.4 0.00 0.48 0.10 58 1000.4
20260509185915 19 185 4.8 27.4 0.00 0.48 0.10 58 1000.3
20260509185143 19 207 4.8 16.1 0.00 0.48 0.10 60 1000.3
20260509184644 19 161 6.4 19.3 0.00 0.48 0.10 57 1000.5
20260509184144 19 120 6.4 19.3 0.00 0.48 0.10 57 1000.5
20260509183908 20 233 4.8 20.9 0.00 0.48 0.10 58 1000.5
20260509183132 20 180 6.4 20.9 0.00 0.48 0.10 57 1000.5
20260509182858 20 142 8.0 19.3 0.00 0.48 0.10 59 1000.5
20260509182126 20 157 6.4 17.7 0.00 0.48 0.10 58 1000.4
20260509181628 20 183 4.8 14.5 0.00 0.48 0.10 60 1000.4
20260509181357 19 215 4.8 19.3 0.00 0.48 0.10 59 1000.3
20260509180624 19 147 6.4 19.3 0.00 0.48 0.10 59 1000.3
20260509180353 19 251 6.4 19.3 0.00 0.48 0.10 60 1000.4
20260509180245 19 302 6.4 24.1 0.00 0.48 0.10 61 1000.5
20260509175124 18 128 6.4 24.1 0.00 0.48 0.10 62 1000.6
20260509174856 19 259 4.8 17.7 0.00 0.48 0.10 61 1000.8
20260509174121 19 218 4.8 14.5 0.00 0.48 0.10 62 1000.6
20260509173622 19 232 4.8 16.1 0.00 0.48 0.10 62 1000.7
20260509173122 18 271 4.8 16.1 0.00 0.48 0.10 63 1000.7
20260509172620 18 175 4.8 16.1 0.00 0.48 0.10 63 1000.6
20260509172121 18 168 4.8 16.1 0.00 0.48 0.10 66 1000.6
20260509171852 18 193 4.8 14.5 0.00 0.48 0.10 66 1000.5
20260509171349 18 179 4.8 16.1 0.00 0.48 0.10 65 1000.6
20260509170620 18 128 4.8 14.5 0.00 0.48 0.10 67 1000.7
20260509170112 17 175 4.8 16.1 0.00 0.48 0.10 69 1000.7
20260509165607 17 250 4.8 16.1 0.00 0.48 0.10 69 1000.8
20260509165332 17 163 4.8 12.9 0.00 0.48 0.10 71 1000.9
20260509165327 17 355 3.2 12.9 0.00 0.48 0.10 74 1000.9
20260509164048 16 250 3.2 9.7 0.00 0.48 0.10 73 1000.8
20260509163542 16 33 4.8 14.5 0.00 0.48 0.10 72 1000.7
20260509163036 16 139 4.8 14.5 0.00 0.48 0.10 73 1000.8
20260509162531 16 150 4.8 12.9 0.00 0.48 0.10 73 1001.0
20260509162024 16 177 3.2 12.9 0.00 0.48 0.10 74 1001.0
20260509161519 16 308 3.2 12.9 0.00 0.48 0.10 74 1001.2
20260509161013 15 240 3.2 11.3 0.00 0.48 0.10 75 1001.3
20260509160508 15 297 3.2 8.0 0.00 0.48 0.10 76 1001.5
20260509160235 15 293 3.2 9.7 0.00 0.48 0.10 77 1001.6
20260509155456 15 180 3.2 12.9 0.00 0.48 0.10 77 1001.6
20260509155220 15 202 3.2 12.9 0.00 0.48 0.10 76 1001.6
20260509154442 15 161 3.2 17.7 0.00 0.48 0.10 76 1001.6
20260509153937 15 11 4.8 17.7 0.00 0.48 0.10 78 1001.5
20260509153430 15 184 6.4 17.7 0.00 0.48 0.10 77 1001.5
20260509152925 15 315 4.8 17.7 0.00 0.48 0.10 77 1001.6
20260509152420 15 217 3.2 14.5 0.00 0.48 0.10 79 1001.5
20260509151913 15 198 1.6 11.3 0.00 0.48 0.10 81 1001.5
20260509151407 14 151 3.2 14.5 0.00 0.48 0.10 82 1001.5
20260509151131 14 246 3.2 14.5 0.00 0.48 0.10 82 1001.4
20260509150356 14 207 3.2 12.9 0.00 0.48 0.10 83 1001.4
20260509150120 14 168 4.8 19.3 0.00 0.48 0.10 84 1001.5
20260509145346 14 115 4.8 19.3 0.00 0.48 0.10 84 1001.6
20260509145109 14 219 4.8 17.7 0.00 0.48 0.10 85 1001.5
20260509144332 14 98 4.8 12.9 0.00 0.48 0.10 89 1001.5
20260509144327 13 168 3.2 12.9 0.00 0.48 0.10 90 1001.4
20260509143318 13 235 3.2 11.3 0.00 0.48 0.10 91 1001.4
20260509142812 13 194 3.2 11.3 0.00 0.48 0.10 92 1001.4
20260509142307 13 150 1.6 11.3 0.00 0.48 0.10 93 1001.4
20260509141800 13 249 3.2 11.3 0.00 0.48 0.10 93 1001.5
20260509141254 12 202 3.2 12.9 0.00 0.48 0.10 93 1001.4
20260509140748 12 306 3.2 12.9 0.00 0.48 0.10 94 1001.5
20260509140243 12 213 3.2 9.7 0.00 0.48 0.10 95 1001.5
20260509135737 12 225 3.2 12.9 0.00 0.48 0.10 95 1001.5
20260509135230 12 182 3.2 12.9 0.00 0.48 0.10 95 1001.5
20260509134724 12 163 1.6 8.0 0.00 0.48 0.10 95 1001.5
20260509134218 12 174 3.2 9.7 0.00 0.48 0.10 96 1001.5
20260509133713 12 207 3.2 9.7 0.00 0.48 0.10 96 1001.6
20260509133206 12 202 3.2 6.4 0.00 0.48 0.10 96 1001.6
20260509132700 12 224 1.6 9.7 0.00 0.48 0.10 96 1001.6
20260509132154 12 210 1.6 9.7 0.00 0.48 0.10 96 1001.5
20260509131649 12 146 1.6 9.7 0.00 0.48 0.10 96 1001.5
20260509131413 11 80 1.6 9.7 0.00 0.48 0.10 96 1001.6
20260509130638 11 200 1.6 8.0 0.00 0.48 0.10 96 1001.6
20260509130130 11 254 1.6 8.0 0.00 0.48 0.10 96 1001.6
20260509125625 11 199 1.6 8.0 0.00 0.48 0.10 96 1001.6
20260509125118 11 182 3.2 8.0 0.00 0.48 0.10 96 1001.7
20260509124614 11 221 1.6 8.0 0.00 0.48 0.10 96 1001.6
20260509124107 11 180 1.6 6.4 0.00 0.48 0.10 96 1001.6
20260509124102 11 184 1.6 8.0 0.00 0.48 0.10 97 1001.7
20260509123327 11 300 1.6 8.0 0.00 0.48 0.10 96 1001.8
20260509122548 11 189 1.6 8.0 0.00 0.48 0.10 96 1001.8
20260509122315 11 225 1.6 6.4 0.00 0.48 0.10 96 1001.9
20260509121809 11 200 1.6 6.4 0.00 0.48 0.10 96 1001.9
20260509121032 11 174 1.6 6.4 0.00 0.48 0.10 96 1001.9
20260509120755 11 200 1.6 4.8 0.00 0.48 0.10 96 1001.9
20260509120018 11 152 0.0 3.2 0.00 0.51 0.10 96 1002.0
20260509115512 11 143 1.6 8.0 0.00 0.51 0.10 96 1001.9
20260509115007 11 163 0.0 8.0 0.00 0.51 0.10 96 1002.0
20260509114502 11 129 0.0 8.0 0.00 0.51 0.10 96 1001.9
20260509114001 11 103 0.0 1.6 0.00 0.51 0.10 96 1001.8
20260509113954 11 165 0.0 8.0 0.00 0.51 0.10 96 1001.9
20260509112951 11 217 0.0 4.8 0.00 0.51 0.10 96 1001.9
20260509112723 11 183 0.0 4.8 0.00 0.51 0.10 96 1001.8
20260509111949 11 189 0.0 1.6 0.00 0.51 0.10 96 1001.8
20260509111446 11 213 0.0 4.8 0.00 0.51 0.10 96 1001.8
20260509110946 11 215 0.0 4.8 0.00 0.51 0.10 96 1001.8
20260509110718 11 104 0.0 1.6 0.00 0.51 0.10 96 1001.8
20260509105945 11 159 0.0 1.6 0.00 0.51 0.10 96 1001.6
20260509105717 10 159 0.0 4.8 0.00 0.51 0.10 96 1001.7
20260509104943 10 159 0.0 4.8 0.00 0.51 0.10 96 1001.7
20260509104712 10 146 0.0 4.8 0.00 0.51 0.10 96 1001.6